H-2A DEB (43673 NORAD) Tracking and Keplerian Element Data

This shows tracking and keplerian element data for the satellite.

Feedback or suggestion? Click here.




ElementValue
Catalog43673
NameH-2A DEB
Epoch Orbit247
Epoch Day318.90072933
Epoch Year2018
RAAN69.2548
Inclination97.8443
Eccentricity0.0014694
Argument of Perigee232.0027
Mean Anonmoly127.9854
Mean Motion14.87458525
Decay Rate9.01E-06
L11 43673U 18084C 18318.90072933 .00000901 00000-0 10546-3 0 9997
L22 43673 97.8443 69.2548 0014694 232.0027 127.9854 14.87458525 2472

Live tracking and technical data element details for H-2A DEB (NORAD 43673). H-2A DEB can be tracked NOW for your location showing map with azimuth and elevation plus other details from your city location.

Track the satellite on the map from your city or location and see movement details for azimuth, elevation, latitude, longitude, range, height, and movement on the map or in text.







IsCatalogInMostPopularTable: catalog: 43673, numindb: 5
Update: records affected: 1



GetName: 43673 H-2A DEB

Hit Count: updated at: Fri, 16 Nov 2018 03:33:17 GMT